sat.trackr.live / text

‹ back to catalog

STARLINK-34924

NORAD 65469 · 2025-195M

PAYLOAD ACTIVE UNKNOWN

§ Identity

Operator
Country
US
Launch date
2025-09-03
Launch site
AFETR
Launch vehicle
Mass (kg)
RCS (m²)

Purposes: comms

External: N2YO · Heavens-Above · Gunter

§ Orbital elements

Epoch: 2026-05-25T00:30:20.007360Z

Period
93.85 min
Inclination
53.1573°
Eccentricity
0.0000993
Mean motion
15.34409724 rev/d
Perigee alt
462.0 km
Apogee alt
463.4 km
Semi-major
6,840.8 km
B*
8.4582e-4
RAAN
263.3991°
Arg perigee
38.9348°
Mean anomaly
321.1725°
Rev number
4,168

§ Raw data

STARLINK-349241 65469U 25195M   26145.02106490  .00028318  00000+0  84582-3 0  99932 65469  53.1573 263.3991 0000993  38.9348 321.1725 15.34409724 41684

JSON: /api/v1/satellites/65469 · /tle

For live sub-satellite position, see the globe view (requires WebGL).

§ Visibility from observer

Set your observer location to see the next 7 days of passes ≥ 10°. The values pass through the URL so the page stays shareable.

No JS? Fill the form by hand. The geolocation button needs JavaScript.